Location: ???????
(55.3754°N, 39.3545°E)
Time: 01:41:08
(UTC+00:00)

Cosmos 2219 Rocket - Pass Details

Date: 14 April 2026
Orbit: 826 x 846 km, 71.0° (Epoch: 20 May)

Event Time Altitude Azimuth Distance (km) Brightness Sun altitude
Rises 18:27:10 0° 243° (WSW) 3,362 5.6 -15.4°
Reaches altitude 10° 18:29:47 10° 252° (WSW) 2,432 4.9 -15.7°
Maximum altitude 18:34:57 38° 320° (NW) 1,256 3.7 -16.2°
Drops below altitude 10° 18:40:10 10° 28° (NNE) 2,450 4.9 -16.7°
Sets 18:42:48 0° 36° (NE) 3,390 5.5 -17.0°
